Weather in Aleksandro-Nevsky

Russia / Ryazan Oblast     53°28′25″N   40°12′35″E
temp.,
°C
wind,
m/s
gust,
m/s
humid.,
%
clouds,
%
prec.,
mm/h
press.,
hPa
HPBL,
m
28 february, sun
sun2800:00−11nnw359677 0.0 1013114
03:00−10nnw239681 0.1 101439
06:00−9nw3496100 0.1 1015118
09:00−9nw369591 0.2 1016274
12:00−7nw359289 0.0 1016424
15:00−5nnw369295 0.1 1016503
18:00−6nnw3693100 0.0 1017202
21:00−6n2396100 0.1 1019128
1 march, mon
mon100:00−6nne2295100 0.1 102178
03:00−7n2294100 0.1 102347
06:00−7wnw129599 0.0 102427
09:00−7wnw239492 0.1 102541
12:00−4wsw349482 0.0 1025256
15:00−3wsw479465 0.0 1024318
18:00−5wsw499678 0.0 1022189
21:00−3wsw6119484 0.0 1020371
2 march, tue
tue200:00−2wsw71294100 0.1 1017503
03:000wsw71393100 0.2 1014588
06:00+1w71493100 0.0 1010801
09:00+1w81599100 0.1 1008721
12:00+1nw71395100 0.2 1008807
15:00+1nw7129095 0.4 1009961
18:000nw6138894 0.1 1009716
21:00−2nw6139197 0.3 1010634
3 march, wed
wed300:00−3nw6139192 0.0 1010508
03:00−3nw6139596 0.2 1011573
06:00−4nw7139299 0.3 1012651
09:00−4nnw81387100 0.3 1014845
12:00−3nnw81187100 0.1 1016907
15:00−2nw8128799 0.1 10171193
18:00−4nw5138898 0.1 1017446
21:00−6nw489251 0.1 1020169
4 march, thu
thu400:00−6wnw489464 0.0 1020163
03:00−7w479377 0.0 1019114
06:00−7sw499418 0.0 1018157
09:00−5wsw6129321 0.0 1017319
12:00−2wsw7138763 0.0 1014561
15:00−1sw7148681 0.0 1012627
18:00−1sw7168795 0.0 1009636
21:00−1sw7168553 0.0 1008546